User: anonymous   Login
Location: Muenchen
(48.1800°N, 11.5800°E)
Time: 09:47:16
(UTC+02:00)
Language:

Cosmos 2233 Rocket - Orbit

View from above orbital plane
View from above orbital plane
View from above satellite
View from above satellite

Ground track
Ground track

The orbit data is extracted from the following two-line orbital elements,

1 22488U 93008B   14296.03141257  .00000020  00000-0  44036-5 0  9780
2 22488 082.9427 078.8698 0026230 060.5837 077.2809 13.77634798 90957
Epoch (UTC): 23 October 2014 00:45:14
Eccentricity: 0.0026230
inclination: 82.9427°
perigee height: 953 km
apogee height: 991 km
right ascension of ascending node: 78.8698°
argument of perigee: 60.5837°
revolutions per day: 13.77634798
mean anomaly at epoch: 77.2809°
orbit number at epoch: 9095

The dashed part of the orbit path shows where the satellite is in the earth's shadow,  

DLR